This is the latest recevied weather packets stored in our database for station/object N0FDH. If no packets are shown the sender has not sent any weather packets the latest 1 day(s).
| Time | Temp. | Humidity | Pressure | Rain* | Wind** | Luminosity | Snow |
|---|---|---|---|---|---|---|---|
| 1777980161 | 1.67° C | 73% | 1006.7 hPa | 0 mm | 1.34 m/s, 309° | 11 W/m² | - |
| 1777979861 | 1.67° C | 72% | 1006.7 hPa | 0 mm | 1.34 m/s, 276° | 9 W/m² | - |
| 1777979557 | 2.22° C | 72% | 1006.7 hPa | 0 mm | 1.79 m/s, 321° | 8 W/m² | - |
| 1777979253 | 2.22° C | 72% | 1006.6 hPa | 0 mm | 1.34 m/s, 292° | 6 W/m² | - |
| 1777978951 | 2.22° C | 72% | 1006.5 hPa | 0 mm | 2.24 m/s, 339° | 5 W/m² | - |
| 1777978647 | 2.22° C | 74% | 1006.5 hPa | 0 mm | 2.24 m/s, 313° | 3 W/m² | - |
| 1777978343 | 2.22° C | 71% | 1006.3 hPa | 0 mm | 1.34 m/s, 314° | 2 W/m² | - |
| 1777978039 | 2.22° C | 74% | 1006.3 hPa | 0 mm | 1.34 m/s, 321° | 1 W/m² | - |
| 1777977737 | 2.22° C | 72% | 1006.2 hPa | 0 mm | 1.34 m/s, 287° | 1 W/m² | - |
| 1777977433 | 2.22° C | 73% | 1006.1 hPa | 0 mm | 0.89 m/s, 287° | 0 W/m² | - |
| 1777977131 | 2.22° C | 74% | 1006.1 hPa | 0 mm | 0.89 m/s, 293° | 0 W/m² | - |
| 1777976828 | 2.22° C | 72% | 1006.1 hPa | 0 mm | 1.34 m/s, 149° | 0 W/m² | - |
| 1777976526 | 2.22° C | 72% | 1006 hPa | 0 mm | 1.34 m/s, 304° | 0 W/m² | - |
| 1777976225 | 2.22° C | 70% | 1006.2 hPa | 0 mm | 1.34 m/s, 301° | 0 W/m² | - |
| 1777975920 | 2.78° C | 72% | 1006 hPa | 0 mm | 0.89 m/s, 301° | 0 W/m² | - |
| 1777975617 | 2.78° C | 71% | 1006.2 hPa | 0 mm | 0.89 m/s, 319° | 0 W/m² | - |
| 1777975314 | 2.78° C | 73% | 1006 hPa | 0 mm | 1.34 m/s, 299° | 0 W/m² | - |
| 1777975009 | 2.78° C | 73% | 1006 hPa | 0 mm | 1.79 m/s, 287° | 0 W/m² | - |
| 1777974707 | 2.78° C | 74% | 1006 hPa | 0 mm | 1.79 m/s, 56° | 0 W/m² | - |
| 1777974403 | 2.78° C | 72% | 1006.1 hPa | 0 mm | 1.34 m/s, 307° | 0 W/m² | - |
| 1777974099 | 2.78° C | 73% | 1006.1 hPa | 0 mm | 1.79 m/s, 290° | 0 W/m² | - |
| 1777973796 | 2.78° C | 72% | 1006 hPa | 0 mm | 1.79 m/s, 265° | 0 W/m² | - |
| 1777973493 | 2.78° C | 72% | 1005.9 hPa | 0 mm | 1.34 m/s, 291° | 0 W/m² | - |
| 1777973190 | 2.78° C | 73% | 1005.9 hPa | 0 mm | 0.89 m/s, 262° | 0 W/m² | - |
| 1777972889 | 2.78° C | 72% | 1005.8 hPa | 0 mm | 1.34 m/s, 309° | 0 W/m² | - |
* Rain latest hour (hover to see other rain measurements)
** Current wind speed in m/s (hover to see current wind gust speed)